(300316) = 2007 PA36

Discovered at Socorro on 2007-08-12 by LINEAR.

Orbit

Orbit type: Main Belt

Note: WebGL enabled browser required.

epoch2024-03-31.0
epoch JD2460400.5
perihelion date2022-05-09.46964
perihelion JD2459708.96964
argument of perihelion (°)42.87290
ascending node (°)281.57861
inclination (°)5.80041
eccentricity0.1311995
perihelion distance (AU)2.0749747
Tisserand w.r.t. Jupiter3.5
ΔV w.r.t. Earth (km/sec)9.1
semimajor axis (AU)2.3883214
mean anomaly (°)184.66133
mean daily motion (°/day)0.26703290
aphelion distance (AU)2.702
period (years)3.69
P-vector [x]0.81021113
P-vector [y]-0.56140954
P-vector [z]-0.16845549
Q-vector [x]0.57771582
Q-vector [y]0.71633253
Q-vector [z]0.39129547
absolute magnitude17.28
phase slope0.15
uncertainty0
referenceMPEC 2024-E73
observations used278
oppositions14
arc length (days)8036
first opposition used2002
last opposition used2024
residual rms (arc-secs)0.71
perturbers coarse indicatorM-v
perturbers precise indicator003Ek
first observation date used2002-03-05.0
last observation date used2024-03-05.0
computer nameMPCLINUX
JD of orbit computation2456376.480298
perihelion JD uncertainty (days)8.0079E-05
argument of perihelion uncertainty (°)6.3208E-05
ascending node uncertainty (°)6.0187E-05
inclination uncertainty (°)4.9291E-06
eccentricity uncertainty 7.0183E-08
perihelion distance uncertainty (AU)1.6505E-07
Minimum Orbit Intersection Distances (in AU)
for orbit epoch: 2460400.5, reference: E2024-E73
Mercury1.66011
Venus1.35498
Earth1.0666
Mars0.69965
Jupiter2.57662
Saturn6.43379
Uranus15.7678
Neptune27.4504

Observations

281 total observations over interval: 2002 03 05.179700 – 2024 03 05.156378
These data are available for download (format description).

Date (UT) J2000 RA J2000 Dec Magn Location Ref
2002 03 05.179700 09 54 14.781 +05 05 48.61 21.27 V 645 – Apache Point-Sloan Digital Sky Survey MPS 289864
2002 03 05.183172 09 54 14.595 +05 05 49.44 22.23   645 – Apache Point-Sloan Digital Sky Survey MPS 289864
2004 12 11.21601 05 29 52.85 +26 34 08.6 20.5 V 691 – Steward Observatory, Kitt Peak-Spacewatch MPS 289864
2004 12 11.24162 05 29 50.97 +26 34 03.8 20.6 V 691 – Steward Observatory, Kitt Peak-Spacewatch MPS 289864
2004 12 11.27889 05 29 48.32 +26 33 57.1 20.3 V 691 – Steward Observatory, Kitt Peak-Spacewatch MPS 289864
2007 08 12.33508 22 22 47.90 -01 31 15.8 20.2   704 – Lincoln Laboratory ETS, New Mexico MPS 213911
2007 08 12.34700 22 22 47.27 -01 31 15.0 20.3   704 – Lincoln Laboratory ETS, New Mexico MPS 213911
2007 08 12.35892 22 22 46.64 -01 31 15.4 19.8   704 – Lincoln Laboratory ETS, New Mexico MPS 213911
2007 08 12.37079 22 22 46.07 -01 31 15.9 19.9   704 – Lincoln Laboratory ETS, New Mexico MPS 213911
2007 08 16.26502 22 19 26.67 -01 34 25.5 19.1   704 – Lincoln Laboratory ETS, New Mexico MPS 213911
2007 08 16.28971 22 19 25.36 -01 34 27.9 20.1   704 – Lincoln Laboratory ETS, New Mexico MPS 213911
2007 08 16.30200 22 19 24.59 -01 34 27.8 19.8   704 – Lincoln Laboratory ETS, New Mexico MPS 213911
2007 08 16.31427 22 19 23.97 -01 34 31.1 19.6   704 – Lincoln Laboratory ETS, New Mexico MPS 213911
2007 09 03.30913 22 02 59.49 -02 18 28.5 19.1 V 703 – Catalina Sky Survey MPS 252998
2007 09 03.31531 22 02 59.13 -02 18 30.5 19.3 V 703 – Catalina Sky Survey MPS 252998
2007 09 03.32145 22 02 58.74 -02 18 31.2 19.6 V 703 – Catalina Sky Survey MPS 252998
2007 09 03.32757 22 02 58.45 -02 18 33.3 19.3 V 703 – Catalina Sky Survey MPS 252998
2007 09 10.21290 21 57 24.44 -02 42 59.2 19.2 V 703 – Catalina Sky Survey MPS 252998
2007 09 10.22152 21 57 24.08 -02 43 01.6 19.0 V 703 – Catalina Sky Survey MPS 252998
2007 09 10.23009 21 57 23.76 -02 43 01.5 19.1 V 703 – Catalina Sky Survey MPS 252998
2007 09 10.23869 21 57 23.32 -02 43 04.3 19.3 V 703 – Catalina Sky Survey MPS 252998
2007 09 14.18342 21 54 38.82 -02 57 27.2 19.1 C 704 – Lincoln Laboratory ETS, New Mexico MPS 289864
2007 09 14.20767 21 54 37.91 -02 57 32.5 19.4 C 704 – Lincoln Laboratory ETS, New Mexico MPS 289864
2007 09 14.21976 21 54 37.34 -02 57 34.1 19.7 C 704 – Lincoln Laboratory ETS, New Mexico MPS 289864
2008 12 22.32711 08 09 26.17 +18 52 25.8 21.1 V G96 – Mt. Lemmon Survey MPS 289864
2008 12 22.33014 08 09 26.02 +18 52 25.3 21.0 V G96 – Mt. Lemmon Survey MPS 289864
2008 12 22.33318 08 09 25.84 +18 52 25.7 20.8 V G96 – Mt. Lemmon Survey MPS 289864
2008 12 22.33622 08 09 25.70 +18 52 25.4 21.3 V G96 – Mt. Lemmon Survey MPS 289864
2008 12 30.29428 08 02 21.85 +18 55 15.6 20.6 V 691 – Steward Observatory, Kitt Peak-Spacewatch MPS 289864
2008 12 30.31264 08 02 20.73 +18 55 16.4 20.8 V 691 – Steward Observatory, Kitt Peak-Spacewatch MPS 289864
2008 12 30.33074 08 02 19.64 +18 55 17.3 20.6 V 691 – Steward Observatory, Kitt Peak-Spacewatch MPS 289864
2009 01 17.36118 07 43 00.33 +19 08 26.2 21.0 V G96 – Mt. Lemmon Survey MPS 289864
2009 01 17.36827 07 42 59.86 +19 08 26.4 20.5 V G96 – Mt. Lemmon Survey MPS 289864
2009 01 17.37530 07 42 59.36 +19 08 26.6 21.1 V G96 – Mt. Lemmon Survey MPS 289864
2010 04 12.451454 14 20 41.130 -23 25 23.96 20.78 r F51 – Pan-STARRS 1, Haleakala MPS 337383
2010 04 12.460502 14 20 40.637 -23 25 22.04 20.65 r F51 – Pan-STARRS 1, Haleakala MPS 337383
2011 09 23.40333 02 01 51.41 +22 40 33.9 20.2 V 691 – Steward Observatory, Kitt Peak-Spacewatch MPS 391165
2011 09 23.42114 02 01 50.80 +22 40 33.5 20.3 V 691 – Steward Observatory, Kitt Peak-Spacewatch MPS 391165
2011 09 23.43893 02 01 50.15 +22 40 32.7 20.3 V 691 – Steward Observatory, Kitt Peak-Spacewatch MPS 391165
2011 09 27.33623 01 59 30.36 +22 37 15.8   691 – Steward Observatory, Kitt Peak-Spacewatch MPS 392691
2011 09 27.35397 01 59 29.63 +22 37 14.7   691 – Steward Observatory, Kitt Peak-Spacewatch MPS 392691
2011 09 27.37172 01 59 28.86 +22 37 13.1   691 – Steward Observatory, Kitt Peak-Spacewatch MPS 392691
2011 10 01.34274 01 56 40.15 +22 29 56.8   691 – Steward Observatory, Kitt Peak-Spacewatch MPS 394243
2011 10 01.36053 01 56 39.30 +22 29 54.1   691 – Steward Observatory, Kitt Peak-Spacewatch MPS 394243
2011 10 01.37833 01 56 38.43 +22 29 51.6   691 – Steward Observatory, Kitt Peak-Spacewatch MPS 394243
2011 10 21.30951 01 38 26.41 +20 57 44.0 19.7 V G96 – Mt. Lemmon Survey MPS 396207
2011 10 21.31699 01 38 25.94 +20 57 41.0 19.7 V G96 – Mt. Lemmon Survey MPS 396207
2011 10 21.32453 01 38 25.51 +20 57 38.1 19.6 V G96 – Mt. Lemmon Survey MPS 396207
2011 10 21.33208 01 38 25.00 +20 57 35.0 19.7 V G96 – Mt. Lemmon Survey MPS 396207
2011 10 22.32072 01 37 27.14 +20 50 59.6 19.6   704 – Lincoln Laboratory ETS, New Mexico MPS 398106
2011 10 22.33279 01 37 26.43 +20 50 54.4 19.7   704 – Lincoln Laboratory ETS, New Mexico MPS 398106
2011 10 22.34475 01 37 25.73 +20 50 51.9 19.9   704 – Lincoln Laboratory ETS, New Mexico MPS 398106
2013 02 08.48503 09 42 52.455 +07 18 17.16 20.7 w F51 – Pan-STARRS 1, Haleakala MPS 456153
2013 02 08.50082 09 42 51.469 +07 18 20.31 20.8 w F51 – Pan-STARRS 1, Haleakala MPS 456153
2013 02 08.51666 09 42 50.494 +07 18 23.41 20.7 w F51 – Pan-STARRS 1, Haleakala MPS 456153
2013 02 10.47103 09 40 52.382 +07 25 01.81 21.0 g F51 – Pan-STARRS 1, Haleakala MPS 456153
2013 02 10.49775 09 40 50.702 +07 25 07.33 20.8 r F51 – Pan-STARRS 1, Haleakala MPS 456153
2013 02 10.51043 09 40 49.933 +07 25 09.87 20.9 r F51 – Pan-STARRS 1, Haleakala MPS 456153
2013 03 03.26378 09 21 07.113 +08 43 00.72 21.0 w F51 – Pan-STARRS 1, Haleakala MPS 459137
2013 03 03.27811 09 21 06.386 +08 43 03.99 21.2 w F51 – Pan-STARRS 1, Haleakala MPS 459137
2013 03 03.29248 09 21 05.660 +08 43 07.14 21.0 w F51 – Pan-STARRS 1, Haleakala MPS 459137
2013 03 03.30682 09 21 04.941 +08 43 10.30 21.1 w F51 – Pan-STARRS 1, Haleakala MPS 459137
2015 12 10.31289 04 38 44.761 +26 39 10.62 20.3 w F51 – Pan-STARRS 1, Haleakala MPS 659373
2015 12 10.32325 04 38 44.041 +26 39 07.73 20.3 w F51 – Pan-STARRS 1, Haleakala MPS 659373
2015 12 10.33366 04 38 43.334 +26 39 04.84 19.9 w F51 – Pan-STARRS 1, Haleakala MPS 659373
2015 12 10.34404 04 38 42.619 +26 39 01.86 20.0 w F51 – Pan-STARRS 1, Haleakala MPS 659373
2015 12 19.12359 04 29 31.77 +25 56 02.0 21.1 V G96 – Mt. Lemmon Survey MPS 663807
2015 12 19.12818 04 29 31.50 +25 56 00.6 21.0 V G96 – Mt. Lemmon Survey MPS 663807
2015 12 19.13276 04 29 31.21 +25 55 58.9 20.5 V G96 – Mt. Lemmon Survey MPS 663807
2015 12 19.13734 04 29 30.95 +25 55 57.7 20.9 V G96 – Mt. Lemmon Survey MPS 663807
2016 01 03.36999 04 17 58.655 +24 42 58.85 20.9 w F51 – Pan-STARRS 1, Haleakala MPS 667879
2016 01 03.38077 04 17 58.290 +24 42 55.95 20.8 w F51 – Pan-STARRS 1, Haleakala MPS 667879
2016 01 03.39159 04 17 57.923 +24 42 52.93 20.9 w F51 – Pan-STARRS 1, Haleakala MPS 667879
2016 01 03.40241 04 17 57.557 +24 42 50.03 21.0 w F51 – Pan-STARRS 1, Haleakala MPS 667879
2016 01 03.62204 04 17 50.66 +24 41 50.8 20.9 R D29 – Purple Mountain Observatory, XuYi Station MPS 667879
2016 01 03.64019 04 17 49.95 +24 41 44.1 20.0 R D29 – Purple Mountain Observatory, XuYi Station MPS 667879
2016 01 08.22606 04 15 47.554 +24 22 31.20 21.0 w F51 – Pan-STARRS 1, Haleakala MPS 667879
2016 01 08.23958 04 15 47.213 +24 22 27.95 21.0 w F51 – Pan-STARRS 1, Haleakala MPS 667879
2016 01 08.25313 04 15 46.892 +24 22 24.85 21.1 w F51 – Pan-STARRS 1, Haleakala MPS 667879
2016 01 08.26668 04 15 46.552 +24 22 21.62 21.1 w F51 – Pan-STARRS 1, Haleakala MPS 667879
2017 02 03.56607 11 53 25.057 -07 17 01.80 21.5 w F51 – Pan-STARRS 1, Haleakala MPS 767079
2017 02 03.57727 11 53 24.811 -07 17 02.63 21.4 w F51 – Pan-STARRS 1, Haleakala MPS 767079
2017 02 03.58848 11 53 24.574 -07 17 03.71 21.5 w F51 – Pan-STARRS 1, Haleakala MPS 767079
2017 02 03.59971 11 53 24.322 -07 17 04.52 21.6 w F51 – Pan-STARRS 1, Haleakala MPS 767079
2017 02 22.44227 11 42 49.447 -07 07 57.33 21.0 w F51 – Pan-STARRS 1, Haleakala MPS 771468
2017 02 22.46914 11 42 48.151 -07 07 53.84 21.1 w F51 – Pan-STARRS 1, Haleakala MPS 771468
2017 02 22.48260 11 42 47.503 -07 07 51.87 21.0 w F51 – Pan-STARRS 1, Haleakala MPS 771468
